{"data":{"norad_id":65589,"intl_designator":"2025-206A","name":"COSMOS 2595 (MOZHAETS 6)","alt_names":[],"object_type":"PAYLOAD","status":"ACTIVE","operator":null,"country":"CIS","launch_date":"2025-09-13","launch_site_code":"PLMSC","launch_vehicle":null,"mission":null,"orbit_class":"UNKNOWN","rcs_meters":null,"size_class":null,"mass_kg":null,"dimensions":null,"purposes":[],"wikipedia_slug":null,"has_3d_model":false,"image_url":null,"decayed_at":null,"tle_current":{"epoch":"2026-09-20T03:03:52.380576Z","epoch_age_seconds":184679,"freshness":"STALE","line1":"1 65589U 25206A   26263.12768959 -.00000026  00000+0  00000+0 0  9991","line2":"2 65589  64.5785 311.4591 0066143 304.1664  55.2813  2.14901440  7992","mean_motion":2.1490144,"eccentricity":0.0066143,"inclination_deg":64.5785,"raan_deg":311.4591,"arg_perigee_deg":304.1664,"mean_anomaly_deg":55.2813,"bstar":0,"rev_number":799,"period_min":670.07461653119,"perigee_km":18819.522031176,"apogee_km":19155.071206345,"semimajor_km":25365.43361876,"source":"CELESTRAK","updated_at":"2026-09-21T09:00:15.434174Z"}}}